Regional Weather Roundup
Issued by NWS Little Rock, AR

Home | Current Version | Previous Version | Text Only | Print | Product List | Glossary Off
Versions: 1 2 3 4 5 6 7 8 9 10 11 12 13 14 15 16 17 18 19 20 21 22 23 24 25 26 27 28 29 30 31 32 33 34 35 36 37 38 39 40 41 42 43 44 45 46 47 48 49 50

000
ASUS44 KLZK 282005
RWRLZK

WEATHER ROUNDUP FOR ARKANSAS
NATIONAL WEATHER SERVICE LITTLE ROCK AR
200 PM CST FRI NOV 28 2014

NOTE: "FAIR" INDICATES FEW OR NO CLOUDS BELOW 12,000 FEET WITH NO
SIGNIFICANT WEATHER AND/OR OBSTRUCTIONS TO VISIBILITY.

ARZ001-003-010-029-282100-
NORTHWEST ARKANSAS

CITY           SKY/WX    TMP DP  RH WIND       PRES   REMARKS
FAYETTEVILLE   SUNNY     58  36  43 S23G31    30.00F
FORT SMITH     SUNNY     64  36  35 S13       30.04F
HARRISON       SUNNY     60  34  37 S13       30.01F
BENTONVILLE    SUNNY     59  34  38 S14G23    30.00F
ROGERS         SUNNY     59  36  42 S16G25    29.99F
SILOAM SPGS    SUNNY     61  36  39 S20G28    30.00F
HIGHFILL       SUNNY     59  35  40 S21G28    29.98F
SPRINGDALE     SUNNY     59  36  41 S17G32    30.02F
$$

ARZ004-005-016-282100-
NORTH CENTRAL ARKANSAS

CITY           SKY/WX    TMP DP  RH WIND       PRES   REMARKS
BATESVILLE     SUNNY     54  30  40 S14       30.12F
FLIPPIN        SUNNY     55  32  41 S12G18    30.05F
MTN HOME       SUNNY     55  32  41 SW16G24   30.03F
$$

ARZ040-041-282100-
WEST CENTRAL ARKANSAS

CITY           SKY/WX    TMP DP  RH WIND       PRES   REMARKS
MENA           SUNNY     61  39  44 S8G16     30.10F
MOUNT IDA      SUNNY     59  36  42 VRB6      30.10F
$$

ARZ009-017-025-026-028-282100-
NORTHEAST ARKANSAS

CITY           SKY/WX    TMP DP  RH WIND       PRES   REMARKS
CORNING        FAIR      50  36  57 S18G26    30.13F
JONESBORO      SUNNY     52  32  46 S17G28    30.15F
NEWPORT        SUNNY     55  34  45 S18G24    30.15F
WALNUT RIDGE   SUNNY     52  34  50 S20       30.12F
BLYTHEVILLE    SUNNY     51  29  42 S15       30.18F
$$

ARZ022-023-033-042-044-282100-
CENTRAL ARKANSAS

CITY           SKY/WX    TMP DP  RH WIND       PRES   REMARKS
LITTLE ROCK    MOSUNNY   58  31  35 S9        30.16F
N LITTLE ROCK  MOSUNNY   56  36  47 S8G17     30.16F
JACKSONVILLE   SUNNY     57  33  40 S12       30.15F
SEARCY         SUNNY     55  36  48 S15       30.17F
HOT SPRINGS    SUNNY     58  35  42 SW10      30.14F
RUSSELLVILLE   SUNNY     58  34  40 S10       30.10F
CLINTON        FAIR      54  34  47 SE10      30.12F
$$

ARZ036-282100-
EAST ARKANSAS

CITY           SKY/WX    TMP DP  RH WIND       PRES   REMARKS
WEST MEMPHIS   SUNNY     52  31  44 S20G28    30.19F
$$

ARZ050-053-066-070-073-282100-
SOUTHWEST ARKANSAS

CITY           SKY/WX    TMP DP  RH WIND       PRES   REMARKS
ARKADELPHIA    FAIR      62  39  42 S10       30.16F
CAMDEN         SUNNY     63  32  31 MISG      30.19F
TEXARKANA      SUNNY     62  39  42 SW14G20   30.16F
EL DORADO      SUNNY     61  34  36 S10       30.20F
DE QUEEN       SUNNY     62  40  44 SW13G18   30.11F
$$

ARZ056-057-069-282100-
SOUTHEAST ARKANSAS

CITY           SKY/WX    TMP DP  RH WIND       PRES   REMARKS
PINE BLUFF     SUNNY     57  33  40 S14       30.19F
STUTTGART      SUNNY     54  36  50 S14       30.20F
MONTICELLO     SUNNY     58  31  35 S13       30.21F

$$





USA.gov is the U.S. government's official web portal to all federal, state and local government web resources and services.